Regional Weather Roundup
Issued by NWS

Home | Current Version | Previous Version | Graphics & Text | Print | Product List | Glossary On
Versions: 1 2 3 4 5 6 7 8 9 10 11 12 13 14 15 16 17 18 19 20 21 22 23 24 25 26 27 28 29 30 31 32 33 34 35 36 37 38 39 40 41 42 43 44 45 46 47 48 49 50
000
ASUS43 KMKX 230100
RWRWI

WISCONSIN REGIONAL WEATHER ROUNDUP
NATIONAL WEATHER SERVICE MILWAUKEE/SULLIVAN WI
800 PM CDT MON AUG 22 2016

NOTE: "FAIR" INDICATES FEW OR NO CLOUDS BELOW 12,000 FEET WITH NO
SIGNIFICANT WEATHER AND/OR OBSTRUCTIONS TO VISIBILITY.

WIZ001-002-006>008-014>016-023>028-230200-
NORTHWEST WISCONSIN

CITY           SKY/WX    TMP DP  RH WIND       PRES   REMARKS
SUPERIOR ARPT  CLEAR     77  63  63 SW12      29.82S
ASHLAND        CLEAR     74  62  66 S9        29.87R
HAYWARD        MOCLDY    73  60  63 S12       29.90S
SIREN          CLEAR     76  59  54 S13       29.88R
CUMBERLAND     PTCLDY    72  59  64 S12G18    29.92S
RICE LAKE      PTCLDY    73  60  62 S9        29.94S
CHETEK         NOT AVBL
LADYSMITH      PTCLDY    73  61  67 S9G16     29.97S
EAU CLAIRE     NOT AVBL
MENOMONIE      CLEAR     74  60  60 S12       29.94S
NEW RICHMOND   CLEAR     75  58  54 S15G23    29.91S
OSCEOLA        CLEAR     76  60  57 S8        29.92R
$$

WIZ003>005-009-010-017-018-230200-
NORTH CENTRAL WISCONSIN

CITY           SKY/WX    TMP DP  RH WIND       PRES   REMARKS
MANITOWISH WTR NOT AVBL
ARBOR VITAE    CLOUDY    72  63  73 S10       29.97F
WOODRUFF       CLOUDY    72  63  73 S10       29.97F
RHINELANDER    CLEAR     69  60  73 S8        30.00S
EAGLE RIVER    CLEAR     65  58  76 S7        29.97F
LAND O LAKES   CLEAR     65  61  87 S6        29.97S
PHILLIPS       MOCLDY    70  62  74 S10G17    29.96S
TOMAHAWK       CLEAR     67  59  75 S5        30.00S
MEDFORD        CLEAR     69  61  76 S9        30.00S
MERRILL        CLEAR     71  61  70 S8        30.01S
$$

WIZ029-030-035-036-043>047-230200-
CENTRAL WISCONSIN

CITY           SKY/WX    TMP DP  RH WIND       PRES   REMARKS
WAUSAU         CLEAR     71  59  65 S13       30.00S
MOSINEE        CLEAR     68  61  77 S10G17    30.04R
MARSHFIELD     CLEAR     71  59  65 S12       30.02R
STEVENS POINT  MOCLDY    71  58  62 S14       30.04S
WAUPACA        CLEAR     73  58  60 S7        30.05F
WAUTOMA        CLEAR     70  60  70 S6        30.06F
WISC RAPIDS    CLEAR     72  61  68 S8        30.05S
CAMP DOUGLAS   NOT AVBL
$$

WIZ011>013-019>022-031-037>040-048>050-230200-
NORTHEAST WISCONSIN

CITY           SKY/WX    TMP DP  RH WIND       PRES   REMARKS
ANTIGO         PTCLDY    67  59  75 S3        30.03S
SHAWANO        CLOUDY    74  57  56 S5        30.03F
OCONTO         NOT AVBL
STURGEON BAY   CLEAR     67  58  72 S10       30.06F
GREEN BAY      PTCLDY    70  60  70 S9        30.05F
MANITOWOC      NOT AVBL
APPLETON       MOCLDY    72  54  53 S12       30.05S
CLINTONVILLE   CLEAR     70  55  60 S7        30.04S
OSHKOSH        CLEAR     67  58  72 S8        30.07S
$$

WIZ032>034-041-042-053>061-230200-
SOUTHWEST WISCONSIN

CITY           SKY/WX    TMP DP  RH WIND       PRES   REMARKS
LA CROSSE      CLEAR     77  66  68 S13       30.00S
SPARTA         CLEAR     73  61  65 S10       30.03S
VIROQUA        CLEAR     71  61  70 S8        30.06S
BOSCOBEL       CLEAR     74  61  63 VRB5      30.06S
PRAIRIE DU CHI CLEAR     75  58  57 SE7       30.04F
PLATTEVILLE    CLEAR     71  62  73 S8        30.10S
$$

WIZ056-057-062-063-064-067-068-230200-
SOUTH CENTRAL WISCONSIN

CITY           SKY/WX    TMP DP  RH WIND       PRES   REMARKS
REEDSBURG      NOT AVBL
BARABOO/DELLS  CLEAR     70  58  66 S8        30.08R
LONE ROCK      NOT AVBL
MINERAL POINT  CLEAR     72  59  64 S7        30.10S
MADISON        PTCLDY    72  57  59 S12       30.09S
MIDDLETON      CLEAR     73  58  60 S6        30.10S
WATERTOWN      CLEAR     69  59  69 S5        30.10F
MONROE         CLEAR     70  57  64 S7        30.11S
JANESVILLE     CLEAR     72  57  60 SW9       30.11S
$$

WIZ051-052-058>065-066-070>072-230200-
SOUTHEAST WISCONSIN

CITY           SKY/WX    TMP DP  RH WIND       PRES   REMARKS
MILWAUKEE      CLEAR     72  57  59 S6        30.12R
WAUKESHA       CLEAR     68  54  60 S6        30.13S
MILWAUKEE/TIMM CLEAR     72  52  49 SW7       30.12R
RACINE         CLEAR     69  59  70 S3        30.14S
BURLINGTON     CLEAR     65  56  74 CALM      30.13S
KENOSHA        CLEAR     66  55  67 W5        30.13R
FOND DU LAC    CLEAR     68  57  68 S8        30.09R
SHEBOYGAN      CLEAR     67  57  70 S9        30.10S
WEST BEND      CLEAR     68  55  64 S5        30.10S
JUNEAU         CLEAR     69  57  65 S8        30.11F
$$

LSZ147-162-230200-
LAKE SUPERIOR

STATION/POSITION TIME  TEMP    WIND        PRES    WAVE
                       AIR SEA DIR/SP/G            HT/PER
                 (UTC) (F)     (DEG/KT/KT) (MB)    (FT/S)
W MID LAKE BUOY  2350   71 67  180/ 12/ 14 1010.4R   1/ 4
DEVILS ISLAND    0000   77     200/ 10/ 14 1010.1F
PORT WING        0000   78     180/  8/ 14 1010.5
SAXON HARBOR     0040   76     190/  2/ 11 1011.5R
$$

LMZ867-665-643>646-230200-
LAKE MICHIGAN

STATION/POSITION TIME  TEMP    WIND        PRES    WAVE
                       AIR SEA DIR/SP/G            HT/PER
                 (UTC) (F)     (DEG/KT/KT) (MB)    (FT/S)
CHAMBERS ISLAND  0000   71     160/  5/ 14 1016.6F
S GREEN BAY BUOY 0000   75 74  190/ 17/ 21 1016.7F
N MID LAKE BUOY  2350   71 71  200/ 21/ 23 1016.9F   5/ 5
NORTHPORT PIER   0000   70     160/  9/ 18 1017.3S
SISTER BAY       0007   71     190/ 16/ 20   N/A
KEWAUNEE LAKESHO 0000   69     190/ 13/ 18 1018.1F
SHEBOYGAN LAKESH 0000   68     190/ 17/ 18 1019.3F
PORT WASHINGTON  0000   68     200/  7/ 11 1020.0S
ATWATER BUOY     0000   69 63  160/ 16/ 17   N/A
MILWAUKEE LAKESH 0010   69     150/ 14/ 16   N/A
S MID LAKE BUOY  2350   74 75  160/ 14/ 16 1019.9F   1/ 3
KENOSHA   LAKESH 0000   72     170/ 12/ 13 1019.3F
$$

TC  - TEMPERATURE IN CELSIUS
VSB - VISIBILITY IN STATUTE MILES
WCI - WIND CHILL INDEX
HX  - HEAT INDEX





USA.gov is the U.S. government's official web portal to all federal, state and local government web resources and services.